When you browse on this site, cookies collect data to enhance your experience and personalize the content and advertising you see.
Visit our Privacy Policy to learn more. By continuing to use the site, you agree to this use of cookies and data.
  • In Hungary
  • List of Countries
  • For 7 days
  • Water Temperature
  • Satellite Maps
  • Weather Map
  • News
  • Weather Widgets
  • user-avatar
    Login

    Hourly Weather Pezino

    Today, 17 January, Thursday

    Time Temperature Precipitation Wind Pressure Humidity
    00:00 +2°C° 0.1 mm 6 mps 745 mmHg 81%
    01:00 +1°C° 0 mm 5 mps 744 mmHg 84%
    02:00 +1°C° 0.1 mm 5 mps 744 mmHg 84%
    03:00 +1°C° 0.1 mm 6 mps 744 mmHg 84%
    04:00 0°C° 0.1 mm 7 mps 743 mmHg 84%
    05:00 0°C° 0.3 mm 7 mps 743 mmHg 83%
    06:00 +2°C° 0.3 mm 7 mps 743 mmHg 83%
    07:00 +2°C° 0 mm 6 mps 743 mmHg 83%
    08:00 +2°C° 0.1 mm 6 mps 743 mmHg 83%
    09:00 +3°C° 0.1 mm 6 mps 744 mmHg 83%
    10:00 +3°C° 0.1 mm 6 mps 744 mmHg 82%
    11:00 +3°C° 0 mm 6 mps 744 mmHg 78%
    12:00 +4°C° 0 mm 7 mps 744 mmHg 74%
    13:00 +4°C° 0 mm 7 mps 744 mmHg 69%
    14:00 +4°C° 0 mm 6 mps 744 mmHg 71%
    15:00 +3°C° 0 mm 5 mps 744 mmHg 73%
    16:00 +3°C° 0 mm 5 mps 744 mmHg 74%
    17:00 +3°C° 0.1 mm 5 mps 744 mmHg 75%
    18:00 +4°C° 0.1 mm 4 mps 743 mmHg 76%
    19:00 +3°C° 0.1 mm 4 mps 743 mmHg 78%
    20:00 +3°C° 0.6 mm 4 mps 744 mmHg 80%
    21:00 +3°C° 0.6 mm 4 mps 744 mmHg 83%
    22:00 +3°C° 0.6 mm 4 mps 744 mmHg 85%
    23:00 +1°C° 0.1 mm 5 mps 745 mmHg 82%

    Tomorrow, 18 January, Friday

    Time Temperature Precipitation Wind Pressure Humidity
    00:00 -1°C° 0.1 mm 6 mps 745 mmHg 80%
    01:00 -2°C° 0.1 mm 7 mps 746 mmHg 77%
    02:00 -2°C° 0.1 mm 7 mps 747 mmHg 77%
    03:00 -3°C° 0.1 mm 7 mps 748 mmHg 77%
    04:00 -3°C° 0.1 mm 7 mps 749 mmHg 77%
    05:00 -3°C° 0 mm 6 mps 750 mmHg 78%
    06:00 -3°C° 0 mm 6 mps 751 mmHg 78%
    07:00 -2°C° 0 mm 5 mps 752 mmHg 79%
    08:00 -2°C° 0 mm 5 mps 753 mmHg 76%
    09:00 -2°C° 0 mm 5 mps 754 mmHg 74%
    10:00 -2°C° 0 mm 5 mps 755 mmHg 71%
    11:00 -1°C° 0 mm 5 mps 756 mmHg 69%
    12:00 -1°C° 0 mm 5 mps 756 mmHg 67%
    13:00 0°C° 0 mm 5 mps 757 mmHg 65%
    14:00 -1°C° 0 mm 4 mps 757 mmHg 68%
    15:00 0°C° 0 mm 3 mps 757 mmHg 72%
    16:00 -1°C° 0 mm 2 mps 757 mmHg 76%
    17:00 -1°C° 0 mm 3 mps 758 mmHg 77%
    18:00 -2°C° 0 mm 3 mps 758 mmHg 78%
    19:00 -2°C° 0 mm 3 mps 758 mmHg 79%
    20:00 -2°C° 0 mm 3 mps 759 mmHg 81%
    21:00 -2°C° 0 mm 3 mps 759 mmHg 83%
    22:00 -2°C° 0 mm 3 mps 759 mmHg 85%
    23:00 -2°C° 0 mm 3 mps 759 mmHg 87%

    Day after tomorrow, 19 January, Saturday

    Time Temperature Precipitation Wind Pressure Humidity
    00:00 -2°C° 0 mm 3 mps 759 mmHg 88%
    01:00 -2°C° 0 mm 3 mps 760 mmHg 90%
    02:00 -3°C° 0 mm 2 mps 760 mmHg 90%
    03:00 -3°C° 0 mm 2 mps 760 mmHg 90%
    04:00 -3°C° 0 mm 2 mps 760 mmHg 90%
    05:00 -3°C° 0 mm 2 mps 760 mmHg 91%
    06:00 -3°C° 0 mm 2 mps 760 mmHg 91%
    07:00 -3°C° 0 mm 2 mps 760 mmHg 91%
    08:00 -2°C° 0 mm 2 mps 761 mmHg 88%
    09:00 -2°C° 0 mm 2 mps 761 mmHg 86%
    10:00 -1°C° 0 mm 2 mps 761 mmHg 83%
    11:00 +1°C° 0 mm 2 mps 761 mmHg 80%
    12:00 +1°C° 0 mm 2 mps 761 mmHg 76%
    13:00 +2°C° 0 mm 2 mps 761 mmHg 72%
    14:00 +1°C° 0 mm 2 mps 760 mmHg 75%
    15:00 +1°C° 0 mm 2 mps 760 mmHg 79%
    16:00 +1°C° 0 mm 1 mps 760 mmHg 82%
    17:00 +1°C° 0 mm 1 mps 760 mmHg 84%
    18:00 0°C° 0 mm 1 mps 760 mmHg 86%
    19:00 0°C° 0 mm 1 mps 760 mmHg 87%
    20:00 0°C° 0 mm 1 mps 760 mmHg 87%
    21:00 0°C° 0 mm 1 mps 760 mmHg 87%
    22:00 -1°C° 0 mm 1 mps 760 mmHg 87%
    23:00 -1°C° 0 mm 1 mps 760 mmHg 87%

    20 January, Sunday

    Time Temperature Precipitation Wind Pressure Humidity
    00:00 -1°C° 0 mm 1 mps 760 mmHg 88%
    01:00 -1°C° 0 mm 1 mps 760 mmHg 88%
    02:00 -1°C° 0 mm 1 mps 760 mmHg 88%
    03:00 -1°C° 0 mm 1 mps 760 mmHg 88%
    04:00 -1°C° 0 mm 1 mps 760 mmHg 88%
    05:00 -2°C° 0 mm 0 mps 760 mmHg 88%
    06:00 -2°C° 0 mm 0 mps 760 mmHg 88%
    07:00 -2°C° 0 mm 0 mps 760 mmHg 88%
    08:00 -2°C° 0 mm 0 mps 760 mmHg 85%
    09:00 -1°C° 0 mm 0 mps 760 mmHg 82%
    10:00 -1°C° 0 mm 0 mps 760 mmHg 79%
    11:00 +1°C° 0 mm 1 mps 760 mmHg 75%
    12:00 +1°C° 0 mm 1 mps 760 mmHg 72%
    13:00 +2°C° 0 mm 1 mps 760 mmHg 68%
    14:00 +1°C° 0 mm 1 mps 760 mmHg 72%
    15:00 +1°C° 0 mm 1 mps 760 mmHg 76%
    16:00 0°C° 0 mm 1 mps 760 mmHg 80%
    17:00 0°C° 0 mm 1 mps 760 mmHg 82%
    18:00 -1°C° 0 mm 1 mps 761 mmHg 84%
    19:00 -1°C° 0 mm 1 mps 761 mmHg 86%
    20:00 -1°C° 0 mm 1 mps 761 mmHg 86%
    21:00 -1°C° 0 mm 1 mps 762 mmHg 87%
    22:00 -3°C° 0 mm 2 mps 762 mmHg 87%
    23:00 -3°C° 0 mm 2 mps 762 mmHg 88%

    21 January, Monday

    Time Temperature Precipitation Wind Pressure Humidity
    00:00 -3°C° 0 mm 2 mps 762 mmHg 88%
    01:00 -3°C° 0 mm 2 mps 762 mmHg 88%
    02:00 -4°C° 0 mm 2 mps 762 mmHg 88%
    03:00 -4°C° 0 mm 2 mps 762 mmHg 88%
    04:00 -2°C° 0 mm 1 mps 762 mmHg 88%
    05:00 -2°C° 0 mm 1 mps 762 mmHg 88%
    06:00 -2°C° 0 mm 1 mps 762 mmHg 87%
    07:00 -2°C° 0 mm 1 mps 762 mmHg 87%
    08:00 -2°C° 0 mm 1 mps 762 mmHg 83%
    09:00 -1°C° 0 mm 1 mps 762 mmHg 80%
    10:00 -1°C° 0 mm 1 mps 763 mmHg 77%
    11:00 -2°C° 0 mm 2 mps 762 mmHg 73%
    12:00 -1°C° 0 mm 2 mps 762 mmHg 70%
    13:00 +1°C° 0 mm 2 mps 762 mmHg 66%
    14:00 -1°C° 0 mm 2 mps 762 mmHg 70%
    15:00 -2°C° 0 mm 2 mps 761 mmHg 73%
    16:00 -2°C° 0 mm 2 mps 761 mmHg 76%
    17:00 -3°C° 0 mm 2 mps 761 mmHg 77%
    18:00 -3°C° 0 mm 2 mps 761 mmHg 79%
    19:00 -3°C° 0 mm 2 mps 761 mmHg 80%
    20:00 -4°C° 0 mm 3 mps 761 mmHg 79%
    21:00 -4°C° 0 mm 3 mps 760 mmHg 79%
    22:00 -5°C° 0 mm 3 mps 760 mmHg 78%
    23:00 -5°C° 0 mm 3 mps 760 mmHg 77%

    22 January, Tuesday

    Time Temperature Precipitation Wind Pressure Humidity
    00:00 -5°C° 0 mm 3 mps 760 mmHg 76%
    01:00 -5°C° 0 mm 3 mps 759 mmHg 76%
    02:00 -5°C° 0 mm 3 mps 759 mmHg 77%
    03:00 -5°C° 0 mm 3 mps 758 mmHg 78%
    04:00 -5°C° 0 mm 3 mps 758 mmHg 79%
    05:00 -5°C° 0 mm 3 mps 758 mmHg 80%
    06:00 -6°C° 0 mm 3 mps 757 mmHg 81%
    07:00 -6°C° 0 mm 3 mps 757 mmHg 82%
    08:00 -5°C° 0 mm 4 mps 757 mmHg 80%
    09:00 -5°C° 0 mm 4 mps 757 mmHg 78%
    10:00 -4°C° 0 mm 4 mps 757 mmHg 77%
    11:00 -3°C° 0 mm 4 mps 756 mmHg 73%
    12:00 -3°C° 0 mm 4 mps 756 mmHg 68%
    13:00 -2°C° 0 mm 5 mps 755 mmHg 64%
    14:00 -2°C° 0 mm 4 mps 755 mmHg 67%
    15:00 -3°C° 0 mm 4 mps 755 mmHg 69%
    16:00 -2°C° 0 mm 3 mps 754 mmHg 71%
    17:00 -4°C° 0 mm 3 mps 754 mmHg 73%
    18:00 -4°C° 0 mm 4 mps 754 mmHg 74%
    19:00 -5°C° 0 mm 4 mps 754 mmHg 76%
    20:00 -5°C° 0 mm 3 mps 754 mmHg 76%
    21:00 -5°C° 0 mm 3 mps 755 mmHg 76%
    22:00 -5°C° 0 mm 3 mps 755 mmHg 76%
    23:00 -5°C° 0 mm 3 mps 755 mmHg 75%
    Show more